This demonstration page uses our WeatherBlox Daily Observations layout. Learn more.

Left ArrowRight Arrow

Hourly Observations for July 16, 2017

Temp ( °F °C ) Dew Point ( °F °C ) Humidity (%) Winds ( mph kmh ) Pressure ( in mb ) Visibility ( mi km ) Precip ( " mm )
12:53 am 00:53 Clear 70 21.1 66 18.9 87 87 N 5 7 29.98 1015 10 16 0.00 0.00
1:53 am 01:53 Clear 70 21.1 66 18.9 87 87 W 5 7 29.97 1015 10 16 0.00 0.00
2:53 am 02:53 Clear 70 21.1 68 20 93 93 SSE 3 6 30.00 1016 10 16 0.00 0.00
3:53 am 03:53 Clear 71 21.7 68 20 90 90 Calm 30.00 1016 10 16 0.00 0.00
4:53 am 04:53 Clear 70 21.1 68 20 93 93 N 3 6 29.99 1016 10 16 0.00 0.00
5:53 am 05:53 Clear 70 21.1 66 18.9 87 87 Calm 29.99 1016 10 16 0.00 0.00
6:53 am 06:53 Mostly Cloudy 70 21.1 67 19.4 90 90 N 3 6 29.99 1016 10 16 0.00 0.00
7:53 am 07:53 Mostly Cloudy 72 22.2 65 18.3 79 79 NNW 3 6 29.99 1016 10 16 0.00 0.00
8:53 am 08:53 Mostly Cloudy 77 25 64 17.8 64 64 NNW 5 7 29.99 1016 10 16 0.00 0.00
9:53 am 09:53 Sunny 80 26.7 62 16.7 54 54 N 3 6 30.00 1016 10 16 0.00 0.00
10:53 am 10:53 Sunny 84 28.9 60 15.6 44 44 Calm 29.98 1015 10 16 0.00 0.00
11:53 am 11:53 Sunny 85 29.4 61 16.1 45 45 Calm 29.97 1015 10 16 0.00 0.00
12:53 pm 12:53 Sunny 88 31.1 59 15 38 38 W 3 6 29.96 1014 10 16 0.00 0.00
1:53 pm 13:53 Sunny 91 32.8 59 15 34 34 VRB 5 7 29.92 1013 10 16 0.00 0.00
2:53 pm 14:53 Sunny 92 33.3 58 14.4 32 32 SW 7 11 29.89 1012 10 16 0.00 0.00
3:49 pm 15:49 Sunny with Thunderstorms 93 34 57 14 30 30 SSW 8 13 29.77 1008 10 16 0.00 0.00
3:53 pm 15:53 Sunny with Thunderstorms 94 34.4 58 14.4 30 30 SE 13 20 29.85 1011 10 16 0.00 0.00
4:13 pm 16:13 Mostly Cloudy with Nearby Thunderstorms 89 31.7 59 15 36 36 ENE 18 30 29.77 1008 10 16 0.00 0.00
4:46 pm 16:46 Mostly Cloudy with Thunderstorms 84 28.9 64 17.8 51 51 NNE 10 17 29.80 1009 10 16 0.02 0.51
4:53 pm 16:53 Partly Cloudy with Thunderstorms 85 29.4 63 17.2 48 48 NNE 8 13 29.86 1011 10 16 0.02 0.51
5:23 pm 17:23 Sunny with Nearby Thunderstorms 87 30.6 56 13.3 35 35 WSW 10 17 29.80 1009 10 16 0.00 0.00
5:49 pm 17:49 Sunny 84 29 61 16 45 45 SW 5 7 29.80 1009 10 16 0.00 0.00
5:53 pm 17:53 Sunny 86 30 60 15.6 42 42 SSW 5 7 29.85 1011 10 16 0.00 0.00
6:53 pm 18:53 Mostly Cloudy 85 29.4 62 16.7 46 46 ESE 18 30 29.87 1012 10 16 0.00 0.00
7:53 pm 19:53 Sunny 81 27.2 61 16.1 51 51 S 9 15 29.88 1012 10 16 0.00 0.00
8:53 pm 20:53 Sunny 77 25 65 18.3 66 66 SSW 12 19 29.89 1012 10 16 0.00 0.00
9:53 pm 21:53 Clear 77 25 65 18.3 66 66 SSE 6 9 29.89 1012 10 16 0.00 0.00
10:53 pm 22:53 Clear 76 24.4 67 19.4 74 74 SE 5 7 29.89 1012 10 16 0.00 0.00
11:53 pm 23:53 Clear 76 24.4 66 18.9 72 72 Calm 29.89 1012 10 16 0.00 0.00

Powered by AerisWeather